Location: Detroit
(42.3310°N, 83.0460°W)
Time: 13:20:48
(UTC-05:00)

Transit 4A - All Passes

Search period start: 07 February 2023 00:00
Search period end: 17 February 2023 00:00
Orbit: 870 x 973 km, 66.8° (Epoch: 06 February)

Date Brightness Start Highest point End Pass type
(mag) Time Alt. Az. Time Alt. Az. Time Alt. Az.
07 Feb - 01:34:44 10° NNW 01:40:24 42° NE 01:46:11 10° ESE night (unlit)
07 Feb - 03:21:17 10° NW 03:26:37 35° WSW 03:32:06 10° S night (unlit)
07 Feb - 16:42:14 10° S 16:47:47 48° ESE 16:53:21 10° NE daylight
07 Feb - 18:29:14 10° WSW 18:34:19 30° NW 18:39:26 10° NNE visible
07 Feb - 23:59:01 10° N 00:02:08 14° NE 00:05:17 10° ENE night (unlit)
08 Feb - 01:43:49 10° NNW 01:49:44 60° NE 01:55:47 10° SE night (unlit)
08 Feb - 03:31:01 10° WNW 03:35:38 23° WSW 03:40:19 10° SSW night (unlit)
08 Feb - 16:51:07 10° SSW 16:56:53 73° ESE 17:02:43 10° NE daylight
08 Feb - 18:39:20 10° W 18:43:49 22° NW 18:48:20 10° N visible
09 Feb - 00:07:39 10° N 00:11:48 19° NE 00:15:59 10° E night (unlit)
09 Feb - 01:52:58 10° NNW 01:58:59 86° ENE 02:05:10 10° SSE night (unlit)
09 Feb - 03:41:15 10° WNW 03:44:34 15° WSW 03:47:54 10° SW night (unlit)
09 Feb - 15:17:08 10° SE 15:20:30 16° ESE 15:23:52 10° ENE daylight
09 Feb - 17:00:16 10° SW 17:06:05 78° WNW 17:11:57 10° NNE daylight
09 Feb - 18:49:45 10° WNW 18:53:25 17° NW 18:57:07 10° N visible
10 Feb - 00:16:28 10° N 00:21:21 25° NE 00:26:18 10° E night (unlit)
10 Feb - 02:02:13 10° NW 02:08:11 67° WSW 02:14:16 10° SSE night (unlit)
10 Feb - 15:24:51 10° SSE 15:29:26 25° ESE 15:34:01 10° NE daylight
10 Feb - 17:09:41 10° SW 17:15:21 54° NW 17:21:05 10° NNE daylight
10 Feb - 19:00:35 10° WNW 19:03:06 13° NNW 19:05:38 10° N visible
11 Feb - 00:25:25 10° NNW 00:30:50 34° NE 00:36:21 10° ESE night (unlit)
11 Feb - 02:11:36 10° NW 02:17:17 45° WSW 02:23:05 10° S night (unlit)
11 Feb - 15:33:09 10° S 15:38:25 37° ESE 15:43:43 10° NE daylight
11 Feb - 17:19:20 10° WSW 17:24:43 38° NW 17:30:08 10° NNE daylight
11 Feb - 22:50:08 10° N 22:52:21 12° NNE 22:54:34 10° NE visible
12 Feb - 00:34:26 10° NNW 00:40:13 48° NE 00:46:07 10° SE night (unlit)
12 Feb - 02:21:10 10° NW 02:26:20 30° WSW 02:31:36 10° SSW night (unlit)
12 Feb - 15:41:50 10° S 15:47:29 56° ESE 15:53:10 10° NE daylight
12 Feb - 17:29:15 10° WSW 17:34:09 27° NW 17:39:06 10° NNE daylight
12 Feb - 22:58:32 10° N 23:02:03 16° NE 23:05:37 10° ENE visible
13 Feb - 00:43:32 10° NNW 00:49:31 68° ENE 00:55:39 10° SE night (unlit)
13 Feb - 02:31:02 10° WNW 02:35:19 20° WSW 02:39:39 10° SSW night (unlit)
13 Feb - 14:09:28 10° ESE 14:11:16 11° E 14:13:05 10° E daylight
13 Feb - 15:50:49 10° SSW 15:56:38 83° ESE 16:02:29 10° NNE daylight
13 Feb - 17:39:27 10° W 17:43:41 20° NW 17:47:58 10° N daylight
13 Feb - 23:07:15 10° N 23:11:40 21° NE 23:16:10 10° E visible
14 Feb - 00:52:43 10° NNW 00:58:45 85° WSW 01:04:56 10° SSE night (unlit)
14 Feb - 02:41:36 10° WNW 02:44:13 13° WSW 02:46:51 10° SW night (unlit)
14 Feb - 14:16:17 10° SSE 14:20:09 19° ESE 14:24:01 10° ENE daylight
14 Feb - 16:00:04 10° SW 16:05:51 69° WNW 16:11:41 10° NNE daylight
14 Feb - 17:49:58 10° WNW 17:53:19 15° NW 17:56:41 10° N daylight
14 Feb - 23:16:07 10° NNW 23:21:13 28° NE 23:26:24 10° ESE visible
15 Feb - 01:02:01 10° NW 01:07:55 58° WSW 01:13:57 10° SSE night (unlit)
15 Feb - 14:24:15 10° SSE 14:29:06 28° ESE 14:33:58 10° NE daylight
15 Feb - 16:09:33 10° SW 16:15:09 47° NW 16:20:48 10° NNE daylight
15 Feb - 18:01:03 10° NW 18:03:02 12° NNW 18:05:02 10° N daylight
15 Feb - 21:42:14 10° NNE 21:42:30 10° NNE 21:42:46 10° NNE visible
15 Feb - 23:25:05 10° NNW 23:30:39 38° NE 23:36:20 10° ESE visible
16 Feb - 01:11:26 10° NW 01:17:00 39° WSW 01:22:40 10° S night (unlit)
16 Feb - 14:32:41 10° S 14:38:07 42° ESE 14:43:34 10° NE daylight
16 Feb - 16:19:18 10° WSW 16:24:32 34° NW 16:29:49 10° NNE daylight
16 Feb - 21:49:31 10° N 21:52:17 13° NNE 21:55:03 10° ENE visible
16 Feb - 23:34:08 10° NNW 23:40:01 54° NE 23:46:02 10° SE visible
